EW8832 Weather Reports


Display with metric or nautical units.
time (UTC)temp
F
wind
direction
speed
MPH
gust
MPH
rain 1hr
in
rain 24hr
in
rain mn
in
humidity
%
barometer
mb
20260905135538 83 157 3.0 6.0 0.00 0.00 0.00 65 1011.7
20260905135036 83 159 2.0 5.0 0.00 0.00 0.00 67 1011.8
20260905134538 82 182 1.0 4.0 0.00 0.00 0.00 67 1011.8
20260905134033 82 188 1.0 3.0 0.00 0.00 0.00 68 1011.7
20260905133534 81 188 2.0 4.0 0.00 0.00 0.00 70 1011.8
20260905133033 81 188 2.0 4.0 0.00 0.00 0.00 70 1011.8
20260905132534 81 191 1.0 3.0 0.00 0.00 0.00 70 1011.7
20260905132035 80 191 2.0 3.0 0.00 0.00 0.00 71 1011.7
20260905131533 80 192 0.0 2.0 0.00 0.00 0.00 73 1011.7
20260905131033 79 192 0.0 2.0 0.00 0.00 0.00 73 1011.7
20260905130534 79 192 0.0 2.0 0.00 0.00 0.00 74 1011.6
20260905130033 78 192 0.0 1.0 0.00 0.00 0.00 75 1011.6
20260905125532 77 192 0.0 1.0 0.00 0.00 0.00 76 1011.6
20260905125031 77 192 0.0 0.0 0.00 0.00 0.00 79 1011.6
20260905124531 76 192 0.0 2.0 0.00 0.00 0.00 80 1011.5
20260905124030 75 192 0.0 2.0 0.00 0.00 0.00 80 1011.4
20260905123530 74 192 0.0 0.0 0.00 0.00 0.00 82 1011.3
20260905123030 74 192 0.0 0.0 0.00 0.00 0.00 83 1011.3
20260905122533 74 192 0.0 1.0 0.00 0.00 0.00 83 1011.4
20260905122030 73 192 0.0 1.0 0.00 0.00 0.00 83 1011.4
20260905121529 73 192 0.0 0.0 0.00 0.00 0.00 83 1011.3
20260905121029 73 192 0.0 0.0 0.00 0.00 0.00 83 1011.3
20260905120528 73 192 0.0 0.0 0.00 0.00 0.00 83 1011.2
20260905120028 73 192 0.0 0.0 0.00 0.00 0.00 82 1011.1
20260905115528 73 192 0.0 0.0 0.00 0.00 0.00 82 1011.1
20260905115026 74 192 0.0 0.0 0.00 0.00 0.00 82 1011.1
20260905114525 74 192 0.0 0.0 0.00 0.00 0.00 82 1011.0
20260905114024 74 192 0.0 0.0 0.00 0.00 0.00 82 1010.9
20260905113524 74 192 0.0 0.0 0.00 0.00 0.00 81 1010.9
20260905113025 74 192 0.0 0.0 0.00 0.00 0.00 81 1010.9
20260905112523 74 192 0.0 0.0 0.00 0.00 0.00 81 1010.9
20260905112025 74 192 0.0 0.0 0.00 0.00 0.00 81 1010.9
20260905111522 74 192 0.0 0.0 0.00 0.00 0.00 80 1011.0
20260905111021 74 192 0.0 0.0 0.00 0.00 0.00 80 1010.9
20260905110520 74 192 0.0 0.0 0.00 0.00 0.00 80 1010.9
20260905110020 74 192 0.0 0.0 0.00 0.00 0.00 80 1010.8
20260905105517 74 192 0.0 0.0 0.00 0.00 0.00 80 1010.8
20260905105018 74 192 0.0 0.0 0.00 0.00 0.00 80 1010.7
20260905104519 74 192 0.0 0.0 0.00 0.00 0.00 80 1010.7
20260905104017 75 192 0.0 0.0 0.00 0.00 0.00 80 1010.6
20260905103517 75 192 0.0 1.0 0.00 0.00 0.00 79 1010.7
20260905103018 75 192 0.0 1.0 0.00 0.00 0.00 79 1010.7
20260905102517 75 192 0.0 0.0 0.00 0.00 0.00 79 1010.7
20260905102016 75 192 0.0 0.0 0.00 0.00 0.00 79 1010.6
20260905101522 75 192 0.0 0.0 0.00 0.00 0.00 79 1010.6
20260905101018 75 192 0.0 0.0 0.00 0.00 0.00 79 1010.6
20260905100515 75 192 0.0 0.0 0.00 0.00 0.00 77 1010.6
20260905100014 76 192 0.0 0.0 0.00 0.00 0.00 77 1010.5
20260905095513 76 192 0.0 0.0 0.00 0.00 0.00 76 1010.5
20260905095016 76 192 0.0 0.0 0.00 0.00 0.00 76 1010.5
20260905094511 76 192 0.0 0.0 0.00 0.00 0.00 76 1010.5
20260905094011 76 192 0.0 0.0 0.00 0.00 0.00 75 1010.5
20260905093514 77 192 0.0 0.0 0.00 0.00 0.00 76 1010.5
20260905093011 77 192 0.0 0.0 0.00 0.00 0.00 76 1010.5
20260905092511 77 192 0.0 0.0 0.00 0.00 0.00 76 1010.5
20260905092010 77 192 0.0 0.0 0.00 0.00 0.00 75 1010.5
20260905091509 77 192 0.0 0.0 0.00 0.00 0.00 75 1010.4
20260905091010 77 192 0.0 0.0 0.00 0.00 0.00 75 1010.5
20260905090509 77 192 0.0 0.0 0.00 0.00 0.00 75 1010.5
20260905090008 77 192 0.0 0.0 0.00 0.00 0.00 74 1010.4
20260905085508 77 192 0.0 0.0 0.00 0.00 0.00 74 1010.4
20260905085008 78 192 0.0 2.0 0.00 0.00 0.00 73 1010.3
20260905084510 78 192 0.0 2.0 0.00 0.00 0.00 72 1010.2
20260905084007 78 192 0.0 2.0 0.00 0.00 0.00 71 1010.2
20260905083512 78 192 0.0 3.0 0.00 0.00 0.00 71 1010.2
20260905083008 78 192 0.0 3.0 0.00 0.00 0.00 72 1010.2
20260905082609 78 192 0.0 2.0 0.00 0.00 0.00 72 1010.3
20260905082009 78 192 1.0 4.0 0.00 0.00 0.00 73 1010.3
20260905081513 77 191 0.0 4.0 0.00 0.00 0.00 73 1010.3
20260905081007 77 186 0.0 2.0 0.00 0.00 0.00 73 1010.3
20260905080507 78 163 0.0 2.0 0.00 0.00 0.00 72 1010.3
20260905080007 78 159 0.0 2.0 0.00 0.00 0.00 72 1010.3
20260905075504 78 158 0.0 2.0 0.00 0.00 0.00 71 1010.3
20260905075003 79 157 0.0 0.0 0.00 0.00 0.00 71 1010.3
20260905074503 79 157 0.0 0.0 0.00 0.00 0.00 70 1010.3
20260905074003 79 157 0.0 0.0 0.00 0.00 0.00 70 1010.4
20260905073502 79 157 0.0 0.0 0.00 0.00 0.00 71 1010.5
20260905073003 79 157 0.0 0.0 0.00 0.00 0.00 71 1010.5
20260905072502 78 157 0.0 0.0 0.00 0.00 0.00 71 1010.5
20260905072001 78 157 0.0 0.0 0.00 0.00 0.00 71 1010.5
20260905071501 79 157 0.0 0.0 0.00 0.00 0.00 71 1010.5
20260905071059 79 157 0.0 0.0 0.00 0.00 0.00 70 1010.5
20260905070559 79 157 0.0 0.0 0.00 0.00 0.00 70 1010.6
20260905070110 79 157 0.0 0.0 0.00 0.00 0.00 70 1010.7
20260905065603 79 157 0.0 0.0 0.00 0.00 0.00 70 1010.6
20260905065100 79 157 0.0 0.0 0.00 0.00 0.00 70 1010.7
20260905064558 79 157 0.0 0.0 0.00 0.00 0.00 70 1010.6
20260905064058 79 157 0.0 0.0 0.00 0.00 0.00 70 1010.7
20260905063557 79 157 0.0 5.0 0.00 0.00 0.00 69 1010.7
20260905062556 79 157 2.0 5.0 0.00 0.00 0.00 69 1010.7
20260905062056 80 157 2.0 5.0 0.00 0.00 0.00 68 1010.7
20260905061612 80 157 2.0 5.0 0.00 0.00 0.00 68 1010.7
20260905061054 80 157 1.0 2.0 0.00 0.00 0.00 67 1010.8
20260905060553 81 157 0.0 5.0 0.00 0.00 0.00 67 1010.8
20260905060055 81 157 1.0 5.0 0.00 0.00 0.00 66 1010.7
20260905055552 81 157 1.0 3.0 0.00 0.00 0.00 66 1010.7
20260905055051 81 153 0.0 5.0 0.00 0.00 0.00 66 1010.8
20260905054558 81 152 2.0 5.0 0.00 0.00 0.00 66 1010.7
20260905054051 81 151 2.0 4.0 0.00 0.00 0.00 66 1010.7
20260905053550 81 150 1.0 3.0 0.00 0.00 0.00 66 1010.7
20260905052550 81 150 2.0 3.0 0.00 0.00 0.00 65 1010.6
20260905052054 81 150 2.0 3.0 0.00 0.00 0.00 65 1010.7
20260905051550 81 150 2.0 3.0 0.00 0.00 0.00 65 1010.6
20260905051050 82 150 2.0 3.0 0.00 0.00 0.00 65 1010.7
20260905050548 82 151 0.0 2.0 0.00 0.00 0.00 64 1010.6
20260905050049 82 151 1.0 2.0 0.00 0.00 0.00 64 1010.7
20260905045546 82 151 1.0 2.0 0.00 0.00 0.00 63 1010.7
20260905045049 82 151 0.0 2.0 0.00 0.00 0.00 63 1010.7
20260905044547 82 150 0.0 3.0 0.00 0.00 0.00 63 1010.7
20260905044046 83 151 1.0 3.0 0.00 0.00 0.00 62 1010.7
20260905043546 83 150 2.0 5.0 0.00 0.00 0.00 61 1010.7
20260905042545 83 151 2.0 5.0 0.00 0.00 0.00 61 1010.7
20260905042046 83 151 2.0 6.0 0.00 0.00 0.00 61 1010.6
20260905041554 83 150 3.0 6.0 0.00 0.00 0.00 60 1010.6
20260905041044 83 147 3.0 7.0 0.00 0.00 0.00 60 1010.6
20260905040545 84 144 3.0 7.0 0.00 0.00 0.00 60 1010.6
20260905040050 84 138 3.0 5.0 0.00 0.00 0.00 59 1010.5
20260905035545 84 138 3.0 7.0 0.00 0.00 0.00 59 1010.5
20260905035045 84 136 3.0 5.0 0.00 0.00 0.00 58 1010.5
20260905034547 84 136 3.0 5.0 0.00 0.00 0.00 58 1010.6
20260905034044 84 140 3.0 5.0 0.00 0.00 0.00 58 1010.5
20260905033544 85 155 3.0 5.0 0.00 0.00 0.00 57 1010.5
20260905032545 85 158 3.0 6.0 0.00 0.00 0.00 57 1010.5
20260905032044 85 158 3.0 6.0 0.00 0.00 0.00 56 1010.5
20260905031548 85 159 4.0 7.0 0.00 0.00 0.00 56 1010.5
20260905031043 86 159 4.0 8.0 0.00 0.00 0.00 56 1010.5
20260905030543 85 153 5.0 8.0 0.00 0.00 0.00 56 1010.5
20260905030047 85 153 4.0 7.0 0.00 0.00 0.00 56 1010.5
20260905025544 85 148 3.0 7.0 0.00 0.00 0.00 56 1010.4
20260905025045 85 153 3.0 7.0 0.00 0.00 0.00 56 1010.3
20260905024543 85 159 4.0 7.0 0.00 0.00 0.00 56 1010.2
20260905024042 85 160 3.0 5.0 0.00 0.00 0.00 56 1010.2
20260905023542 85 163 3.0 5.0 0.00 0.00 0.00 55 1010.1
20260905022542 85 163 2.0 4.0 0.00 0.00 0.00 55 1009.9
20260905022043 85 163 1.0 5.0 0.00 0.00 0.00 55 1009.9
20260905021542 86 163 3.0 5.0 0.00 0.00 0.00 55 1009.8
20260905021046 86 164 3.0 5.0 0.00 0.00 0.00 54 1009.7
20260905020542 86 165 2.0 4.0 0.00 0.00 0.00 55 1009.7
20260905020043 86 165 2.0 3.0 0.00 0.00 0.00 54 1009.5
20260905015542 86 165 3.0 5.0 0.00 0.00 0.00 53 1009.5
20260905015041 86 165 3.0 5.0 0.00 0.00 0.00 52 1009.4
20260905014541 87 165 2.0 5.0 0.00 0.00 0.00 52 1009.3
20260905014043 87 165 2.0 5.0 0.00 0.00 0.00 51 1009.1
20260905013542 88 165 2.0 3.0 0.00 0.00 0.00 50 1009.1
20260905012541 88 165 1.0 3.0 0.00 0.00 0.00 50 1009.0
20260905012041 88 165 1.0 3.0 0.00 0.00 0.00 49 1009.0
20260905011542 88 165 1.0 3.0 0.00 0.00 0.00 49 1008.9
20260905011041 89 168 1.0 3.0 0.00 0.00 0.00 49 1008.9
20260905010541 89 168 1.0 2.0 0.00 0.00 0.00 48 1008.8
20260905010042 89 168 1.0 3.0 0.00 0.00 0.00 48 1008.8
20260905005543 90 168 1.0 3.0 0.00 0.00 0.00 47 1008.8
20260905005041 90 168 2.0 6.0 0.00 0.00 0.00 46 1008.8
20260905004540 91 168 3.0 6.0 0.00 0.00 0.00 45 1008.7
20260905004040 92 173 3.0 5.0 0.00 0.00 0.00 44 1008.7
20260905003540 93 174 2.0 4.0 0.00 0.00 0.00 43 1008.7
20260905002540 93 158 2.0 5.0 0.00 0.00 0.00 43 1008.7
20260905002040 93 157 2.0 7.0 0.00 0.00 0.00 42 1008.7
20260905001541 94 134 4.0 7.0 0.00 0.00 0.00 42 1008.6
20260905001040 94 131 4.0 8.0 0.00 0.00 0.00 41 1008.5
20260905000541 95 138 3.0 8.0 0.00 0.00 0.00 40 1008.5
20260905000041 95 159 3.0 7.0 0.00 0.00 0.00 39 1008.6
20260904235539 95 140 4.0 8.0 0.00 0.00 0.00 39 1008.6
20260904235040 95 160 4.0 8.0 0.00 0.00 0.00 39 1008.6
20260904234547 95 180 3.0 9.0 0.00 0.00 0.00 39 1008.6
20260904234040 96 161 5.0 13.0 0.00 0.00 0.00 39 1008.6
20260904233540 96 129 4.0 8.0 0.00 0.00 0.00 39 1008.6
20260904232540 96 155 3.0 8.0 0.00 0.00 0.00 39 1008.5
20260904232040 96 160 5.0 8.0 0.00 0.00 0.00 39 1008.5
20260904231539 96 143 3.0 10.0 0.00 0.00 0.00 39 1008.6
20260904231039 96 125 6.0 11.0 0.00 0.00 0.00 38 1008.6
20260904230542 96 134 8.0 11.0 0.00 0.00 0.00 38 1008.6
20260904230040 96 162 7.0 12.0 0.00 0.00 0.00 38 1008.6
20260904225540 96 198 9.0 12.0 0.00 0.00 0.00 38 1008.6
20260904225038 97 182 5.0 8.0 0.00 0.00 0.00 37 1008.6
20260904224549 97 212 3.0 5.0 0.00 0.00 0.00 37 1008.7
20260904224039 96 241 1.0 7.0 0.00 0.00 0.00 38 1008.6
20260904223537 96 165 6.0 10.0 0.00 0.00 0.00 38 1008.8
20260904222537 97 176 4.0 8.0 0.00 0.00 0.00 37 1008.8
20260904222037 98 222 3.0 10.0 0.00 0.00 0.00 37 1008.8
20260904221538 98 202 4.0 12.0 0.00 0.00 0.00 37 1008.9
20260904221037 98 177 9.0 15.0 0.00 0.00 0.00 37 1008.8
20260904220535 98 169 7.0 15.0 0.00 0.00 0.00 37 1008.9
20260904220036 97 164 7.0 14.0 0.00 0.00 0.00 37 1008.9
20260904215535 98 165 6.0 14.0 0.00 0.00 0.00 37 1009.0
20260904215034 98 186 9.0 12.0 0.00 0.00 0.00 36 1009.0
20260904214535 98 213 4.0 10.0 0.00 0.00 0.00 36 1009.0
20260904214035 98 95 3.0 10.0 0.00 0.00 0.00 36 1009.0
20260904213533 98 187 2.0 12.0 0.00 0.00 0.00 35 1009.1
20260904212534 98 166 5.0 12.0 0.00 0.00 0.00 35 1009.2
20260904212035 99 147 8.0 12.0 0.00 0.00 0.00 35 1009.2
20260904211533 98 193 4.0 8.0 0.00 0.00 0.00 35 1009.2
20260904211034 98 194 3.0 9.0 0.00 0.00 0.00 35 1009.3
20260904210531 97 143 3.0 9.0 0.00 0.00 0.00 36 1009.3
20260904210032 97 78 2.0 14.0 0.00 0.00 0.00 35 1009.3
20260904205531 97 166 4.0 14.0 0.00 0.00 0.00 36 1009.4
20260904205030 97 177 4.0 8.0 0.00 0.00 0.00 35 1009.4
20260904204530 98 188 3.0 10.0 0.00 0.00 0.00 36 1009.5
20260904204033 98 232 5.0 10.0 0.00 0.00 0.00 36 1009.6
20260904203529 99 178 7.0 15.0 0.00 0.00 0.00 36 1009.5
20260904202528 98 128 7.0 12.0 0.00 0.00 0.00 36 1009.7
20260904202027 98 157 8.0 12.0 0.00 0.00 0.00 36 1009.8
20260904201526 98 248 3.0 12.0 0.00 0.00 0.00 36 1009.8
20260904201024 98 186 2.0 12.0 0.00 0.00 0.00 36 1009.9
20260904200525 98 298 7.0 11.0 0.00 0.00 0.00 37 1009.9
20260904200024 98 283 3.0 10.0 0.00 0.00 0.00 36 1010.0
20260904195524 98 225 6.0 10.0 0.00 0.00 0.00 37 1010.0
20260904195024 98 273 1.0 9.0 0.00 0.00 0.00 37 1010.0
20260904194521 97 244 5.0 9.0 0.00 0.00 0.00 37 1010.1
20260904194020 97 172 6.0 9.0 0.00 0.00 0.00 37 1010.1
20260904193520 97 207 4.0 11.0 0.00 0.00 0.00 37 1010.2
20260904192518 96 212 4.0 17.0 0.00 0.00 0.00 38 1010.3
20260904192021 96 174 8.0 14.0 0.00 0.00 0.00 38 1010.3
20260904191520 96 261 3.0 14.0 0.00 0.00 0.00 39 1010.4
20260904191019 96 254 7.0 14.0 0.00 0.00 0.00 39 1010.4
20260904190518 97 182 4.0 11.0 0.00 0.00 0.00 39 1010.5
20260904190021 96 229 5.0 13.0 0.00 0.00 0.00 39 1010.6
20260904185515 96 189 5.0 13.0 0.00 0.00 0.00 40 1010.7
20260904185014 96 192 3.0 10.0 0.00 0.00 0.00 40 1010.7
20260904184514 95 216 6.0 10.0 0.00 0.00 0.00 39 1010.8
20260904184014 96 249 3.0 12.0 0.00 0.00 0.00 40 1010.8
20260904183514 95 175 7.0 16.0 0.00 0.00 0.00 41 1010.8
20260904182515 94 192 8.0 16.0 0.00 0.00 0.00 42 1011.0
20260904182011 94 156 5.0 15.0 0.00 0.00 0.00 43 1011.0
20260904181510 94 180 9.0 15.0 0.00 0.00 0.00 43 1011.1
20260904181011 94 182 6.0 13.0 0.00 0.00 0.00 44 1011.1
20260904180509 94 300 4.0 13.0 0.00 0.00 0.00 45 1011.2
20260904180008 94 160 8.0 15.0 0.00 0.00 0.00 44 1011.3
20260904175507 94 284 5.0 14.0 0.00 0.00 0.00 45 1011.4
20260904175009 94 170 4.0 14.0 0.00 0.00 0.00 44 1011.5
20260904174508 94 208 5.0 13.0 0.00 0.00 0.00 43 1011.6
20260904174007 94 181 5.0 17.0 0.00 0.00 0.00 44 1011.7
20260904173505 93 159 7.0 12.0 0.00 0.00 0.00 45 1011.8
20260904172510 93 217 6.0 12.0 0.00 0.00 0.00 45 1011.9
20260904172006 93 219 5.0 9.0 0.00 0.00 0.00 46 1012.0
20260904171504 92 262 2.0 12.0 0.00 0.00 0.00 46 1012.1
20260904171006 93 207 6.0 13.0 0.00 0.00 0.00 46 1012.1
20260904170505 93 232 5.0 11.0 0.00 0.00 0.00 46 1012.1
20260904170003 93 227 5.0 10.0 0.00 0.00 0.00 47 1012.2
20260904165503 93 211 5.0 11.0 0.00 0.00 0.00 47 1012.3
20260904165101 92 234 7.0 11.0 0.00 0.00 0.00 48 1012.3
20260904164600 91 217 2.0 14.0 0.00 0.00 0.00 48 1012.3
20260904164058 91 234 5.0 13.0 0.00 0.00 0.00 48 1012.3
20260904163557 91 202 6.0 17.0 0.00 0.00 0.00 49 1012.3
20260904162555 91 190 6.0 17.0 0.00 0.00 0.00 50 1012.3
20260904162054 90 227 8.0 15.0 0.00 0.00 0.00 51 1012.3
20260904161554 90 229 8.0 15.0 0.00 0.00 0.00 51 1012.3
20260904161053 90 200 7.0 13.0 0.00 0.00 0.00 51 1012.3
20260904160552 89 219 7.0 10.0 0.00 0.00 0.00 53 1012.3
20260904160054 89 225 4.0 8.0 0.00 0.00 0.00 55 1012.3
20260904155548 89 231 3.0 10.0 0.00 0.00 0.00 56 1012.3
20260904155048 88 224 4.0 13.0 0.00 0.00 0.00 58 1012.3
20260904154546 88 191 6.0 13.0 0.00 0.00 0.00 58 1012.4
20260904154046 88 200 5.0 10.0 0.00 0.00 0.00 58 1012.4
20260904153546 87 190 4.0 9.0 0.00 0.00 0.00 61 1012.5
20260904152545 86 246 3.0 10.0 0.00 0.00 0.00 61 1012.5
20260904152044 86 221 3.0 7.0 0.00 0.00 0.00 62 1012.4
20260904151544 86 218 4.0 7.0 0.00 0.00 0.00 62 1012.5
20260904151043 86 265 2.0 8.0 0.00 0.00 0.00 63 1012.5
20260904150542 86 147 5.0 8.0 0.00 0.00 0.00 63 1012.5
20260904150045 85 145 3.0 7.0 0.00 0.00 0.00 64 1012.5
20260904145541 85 217 3.0 9.0 0.00 0.00 0.00 64 1012.5
20260904145040 85 207 3.0 9.0 0.00 0.00 0.00 65 1012.4
20260904144539 84 201 4.0 7.0 0.00 0.00 0.00 65 1012.5
20260904144041 84 200 3.0 8.0 0.00 0.00 0.00 66 1012.5
20260904143536 84 173 3.0 8.0 0.00 0.00 0.00 66 1012.5
20260904142535 83 164 3.0 8.0 0.00 0.00 0.00 67 1012.4
20260904142035 83 204 2.0 7.0 0.00 0.00 0.00 68 1012.4
20260904141534 83 221 4.0 7.0 0.00 0.00 0.00 67 1012.5
20260904141034 83 185 5.0 7.0 0.00 0.00 0.00 67 1012.5
20260904140533 83 250 2.0 7.0 0.00 0.00 0.00 67 1012.5
20260904140041 83 251 2.0 6.0 0.00 0.00 0.00 68 1012.5